N2849F FAPE-FXNH

Flight info

Callsign N2849F
Flight time N/A
Altitude 9000
Route ITKIT UZ5 IMROG UZ5 IXAKU 303228S0270340E 302038S0274231E
Aircraft C208/L-SDFGR/C

Departure

Time 2026-04-14 00:30
Airport Chief Dawid Stuurman International Airport (FAPE)

Arrival

Time N/A
Airport Nohanas Airport (FXNH)
Time Latitude Longitude Altitude Speed Heading
2026-04-14 00:11 -33.98538 25.61043 211 ft 0 kts 327°
2026-04-14 00:24 -33.98536 25.61042 210 ft 1 kts 350°
2026-04-14 00:25 -33.98551 25.61053 215 ft 8 kts 161°
2026-04-14 00:25 -33.98618 25.61035 210 ft 18 kts 238°
2026-04-14 00:25 -33.98678 25.60922 210 ft 10 kts 238°
2026-04-14 00:25 -33.98711 25.60856 210 ft 13 kts 238°
2026-04-14 00:26 -33.98758 25.60768 212 ft 8 kts 237°
2026-04-14 00:26 -33.98793 25.60708 213 ft 13 kts 234°
2026-04-14 00:26 -33.98862 25.60583 210 ft 23 kts 234°
2026-04-14 00:26 -33.98960 25.60395 212 ft 28 kts 238°
2026-04-14 00:27 -33.99053 25.60228 210 ft 16 kts 236°
2026-04-14 00:27 -33.99096 25.60146 214 ft 9 kts 241°
2026-04-14 00:27 -33.99120 25.60099 212 ft 5 kts 235°
2026-04-14 00:27 -33.99160 25.60032 214 ft 15 kts 236°
2026-04-14 00:28 -33.99235 25.59924 211 ft 16 kts 189°
2026-04-14 00:28 -33.99291 25.59945 211 ft 0 kts 144°
2026-04-14 00:28 -33.99292 25.59946 211 ft 2 kts 144°
2026-04-14 00:29 -33.99347 25.59987 215 ft 15 kts 156°
2026-04-14 00:29 -33.99339 25.60093 210 ft 21 kts 58°
2026-04-14 00:29 -33.99179 25.60404 213 ft 71 kts 58°
2026-04-14 00:29 -33.98831 25.61071 275 ft 108 kts 54°
2026-04-14 00:30 -33.98444 25.61808 663 ft 102 kts 53°
2026-04-14 00:30 -33.98029 25.62512 934 ft 103 kts 53°
2026-04-14 00:30 -33.97614 25.63228 1248 ft 106 kts 53°
2026-04-14 00:30 -33.97189 25.63928 1624 ft 104 kts 46°
2026-04-14 00:31 -33.96543 25.64356 1793 ft 117 kts 13°
2026-04-14 00:31 -33.95772 25.64734 2118 ft 123 kts 26°
2026-04-14 00:31 -33.95006 25.65346 2214 ft 145 kts 35°
2026-04-14 00:31 -33.94186 25.66104 2424 ft 151 kts 36°
2026-04-14 00:32 -33.92584 25.67548 2809 ft 138 kts 34°
2026-04-14 00:32 -33.91821 25.68211 3002 ft 133 kts 34°
2026-04-14 00:32 -33.91080 25.68855 3201 ft 130 kts 34°
2026-04-14 00:33 -33.90354 25.69485 3401 ft 127 kts 34°
2026-04-14 00:33 -33.89642 25.70103 3597 ft 125 kts 34°
2026-04-14 00:33 -33.88942 25.70712 3795 ft 123 kts 34°
2026-04-14 00:33 -33.88255 25.71310 3992 ft 121 kts 34°
2026-04-14 00:34 -33.87577 25.71899 4191 ft 119 kts 33°
2026-04-14 00:34 -33.86904 25.72483 4379 ft 119 kts 33°
2026-04-14 00:34 -33.86220 25.73074 4556 ft 123 kts 33°
2026-04-14 00:34 -33.85520 25.73679 4737 ft 125 kts 33°
2026-04-14 00:35 -33.84805 25.74298 4917 ft 129 kts 33°
2026-04-14 00:35 -33.84073 25.74934 5090 ft 131 kts 33°
2026-04-14 00:35 -33.83329 25.75580 5261 ft 133 kts 33°
2026-04-14 00:35 -33.82578 25.76233 5432 ft 134 kts 33°
2026-04-14 00:36 -33.81821 25.76892 5605 ft 135 kts 33°
2026-04-14 00:36 -33.81060 25.77553 5777 ft 135 kts 33°
2026-04-14 00:36 -33.80297 25.78215 5949 ft 135 kts 33°
2026-04-14 00:36 -33.79534 25.78877 6124 ft 135 kts 33°
2026-04-14 00:37 -33.78781 25.79530 6296 ft 135 kts 33°
2026-04-14 00:37 -33.78017 25.80192 6471 ft 135 kts 33°
2026-04-14 00:37 -33.76996 25.81075 6694 ft 135 kts 33°
2026-04-14 00:37 -33.76492 25.81512 6803 ft 135 kts 33°
2026-04-14 00:38 -33.75731 25.82172 6968 ft 135 kts 33°
2026-04-14 00:38 -33.74971 25.82830 7135 ft 135 kts 33°
2026-04-14 00:38 -33.74210 25.83489 7304 ft 135 kts 33°
2026-04-14 00:38 -33.73449 25.84147 7473 ft 135 kts 33°
2026-04-14 00:39 -33.72687 25.84807 7643 ft 135 kts 34°
2026-04-14 00:39 -33.71926 25.85465 7812 ft 135 kts 34°
2026-04-14 00:39 -33.71165 25.86123 7983 ft 135 kts 34°
2026-04-14 00:39 -33.70404 25.86780 8157 ft 135 kts 34°
2026-04-14 00:40 -33.69644 25.87438 8329 ft 135 kts 34°
2026-04-14 00:40 -33.68883 25.88095 8503 ft 135 kts 34°
2026-04-14 00:40 -33.68123 25.88752 8674 ft 135 kts 34°
2026-04-14 00:40 -33.67362 25.89410 8864 ft 135 kts 34°
2026-04-14 00:41 -33.66600 25.90068 9036 ft 135 kts 34°
2026-04-14 00:41 -33.65812 25.90746 9074 ft 145 kts 34°
2026-04-14 00:41 -33.64974 25.91471 9086 ft 152 kts 34°
2026-04-14 00:41 -33.64099 25.92229 9090 ft 157 kts 34°
2026-04-14 00:42 -33.63201 25.93005 9091 ft 161 kts 34°
2026-04-14 00:42 -33.62287 25.93794 9089 ft 163 kts 34°
2026-04-14 00:42 -33.61365 25.94591 9089 ft 164 kts 34°
2026-04-14 00:42 -33.60438 25.95389 9086 ft 164 kts 34°
2026-04-14 00:43 -33.59508 25.96191 9087 ft 165 kts 34°
2026-04-14 00:43 -33.58576 25.96993 9091 ft 165 kts 35°
2026-04-14 00:43 -33.57644 25.97789 9094 ft 165 kts 34°
2026-04-14 00:43 -33.56708 25.98582 9094 ft 165 kts 34°
2026-04-14 00:44 -33.55771 25.99376 9093 ft 165 kts 34°
2026-04-14 00:44 -33.54837 26.00171 9092 ft 165 kts 34°
2026-04-14 00:44 -33.53904 26.00968 9094 ft 165 kts 34°
2026-04-14 00:44 -33.52972 26.01766 9096 ft 165 kts 34°
2026-04-14 00:45 -33.52039 26.02565 9097 ft 165 kts 34°
2026-04-14 00:45 -33.51108 26.03364 9097 ft 165 kts 34°
2026-04-14 00:45 -33.50177 26.04164 9097 ft 165 kts 34°
2026-04-14 00:45 -33.49246 26.04964 9096 ft 165 kts 35°
2026-04-14 00:46 -33.48315 26.05764 9097 ft 165 kts 34°
2026-04-14 00:46 -33.47383 26.06564 9098 ft 165 kts 34°
2026-04-14 00:46 -33.46450 26.07364 9098 ft 165 kts 34°
2026-04-14 00:46 -33.45519 26.08163 9098 ft 165 kts 34°
2026-04-14 00:47 -33.44585 26.08964 9097 ft 165 kts 34°
2026-04-14 00:47 -33.43655 26.09762 9099 ft 165 kts 34°
2026-04-14 00:47 -33.42722 26.10561 9098 ft 165 kts 34°
2026-04-14 00:47 -33.41791 26.11358 9097 ft 165 kts 34°
2026-04-14 00:48 -33.40856 26.12158 9098 ft 165 kts 34°
2026-04-14 00:48 -33.39925 26.12957 9097 ft 165 kts 34°
2026-04-14 00:48 -33.38993 26.13755 9104 ft 165 kts 34°
2026-04-14 00:48 -33.38059 26.14553 9107 ft 165 kts 34°
2026-04-14 00:49 -33.37126 26.15350 9106 ft 165 kts 34°
2026-04-14 00:49 -33.36191 26.16148 9110 ft 165 kts 34°
2026-04-14 00:49 -33.35203 26.16842 9108 ft 165 kts 24°
2026-04-14 00:49 -33.34128 26.17309 9107 ft 164 kts 17°
2026-04-14 00:50 -33.33033 26.17691 9105 ft 164 kts 16°
2026-04-14 00:50 -33.31943 26.18085 9104 ft 164 kts 17°
2026-04-14 00:50 -33.30861 26.18504 9107 ft 164 kts 18°
2026-04-14 00:50 -33.29781 26.18941 9108 ft 164 kts 19°
2026-04-14 00:51 -33.28704 26.19384 9108 ft 164 kts 19°
2026-04-14 00:51 -33.27629 26.19831 9106 ft 164 kts 19°
2026-04-14 00:51 -33.26558 26.20278 9103 ft 163 kts 19°
2026-04-14 00:51 -33.25487 26.20726 9102 ft 163 kts 19°
2026-04-14 00:52 -33.24417 26.21174 9105 ft 163 kts 19°
2026-04-14 00:52 -33.23361 26.21616 9106 ft 163 kts 19°
2026-04-14 00:52 -33.22291 26.22065 9106 ft 163 kts 19°
2026-04-14 00:52 -33.21218 26.22515 9106 ft 163 kts 19°
2026-04-14 00:53 -33.20147 26.22963 9105 ft 163 kts 19°
2026-04-14 00:53 -33.19074 26.23413 9105 ft 163 kts 19°
2026-04-14 00:53 -33.18003 26.23862 9102 ft 163 kts 19°
2026-04-14 00:53 -33.16932 26.24310 9105 ft 163 kts 19°
2026-04-14 00:54 -33.15857 26.24760 9109 ft 164 kts 19°
2026-04-14 00:54 -33.14783 26.25209 9108 ft 164 kts 19°
2026-04-14 00:54 -33.13706 26.25659 9111 ft 164 kts 19°
2026-04-14 00:54 -33.12631 26.26108 9107 ft 164 kts 19°
2026-04-14 00:55 -33.11560 26.26556 9108 ft 163 kts 19°
2026-04-14 00:55 -33.10488 26.27005 9109 ft 163 kts 19°
2026-04-14 00:55 -33.09417 26.27452 9109 ft 163 kts 19°
2026-04-14 00:55 -33.08348 26.27898 9109 ft 163 kts 20°
2026-04-14 00:56 -33.07280 26.28344 9110 ft 162 kts 20°
2026-04-14 00:56 -33.06215 26.28788 9111 ft 162 kts 20°
2026-04-14 00:56 -33.05151 26.29233 9110 ft 162 kts 20°
2026-04-14 00:56 -33.04086 26.29677 9112 ft 162 kts 20°
2026-04-14 00:57 -33.03021 26.30122 9109 ft 162 kts 20°
2026-04-14 00:57 -33.01956 26.30566 9109 ft 162 kts 20°
2026-04-14 00:57 -33.00895 26.31009 9108 ft 162 kts 20°
2026-04-14 00:57 -32.99833 26.31450 9112 ft 162 kts 20°
2026-04-14 00:58 -32.98772 26.31892 9113 ft 162 kts 20°
2026-04-14 00:58 -32.97723 26.32328 9110 ft 162 kts 19°
2026-04-14 00:58 -32.96659 26.32770 9111 ft 162 kts 20°
2026-04-14 00:58 -32.95596 26.33212 9111 ft 162 kts 20°
2026-04-14 00:59 -32.94535 26.33654 9112 ft 162 kts 20°
2026-04-14 00:59 -32.93471 26.34098 9109 ft 162 kts 20°
2026-04-14 00:59 -32.92407 26.34540 9116 ft 162 kts 19°
2026-04-14 00:59 -32.91344 26.34982 9115 ft 162 kts 19°
2026-04-14 01:00 -32.90279 26.35424 9115 ft 162 kts 19°
2026-04-14 01:00 -32.89216 26.35864 9116 ft 162 kts 19°
2026-04-14 01:00 -32.88152 26.36305 9113 ft 162 kts 19°
2026-04-14 01:00 -32.87088 26.36747 9112 ft 162 kts 20°
2026-04-14 01:01 -32.86025 26.37189 9113 ft 162 kts 19°
2026-04-14 01:01 -32.84961 26.37630 9112 ft 162 kts 20°
2026-04-14 01:01 -32.83899 26.38072 9116 ft 162 kts 20°
2026-04-14 01:01 -32.82836 26.38515 9116 ft 162 kts 20°
2026-04-14 01:02 -32.81776 26.38955 9120 ft 162 kts 20°
2026-04-14 01:02 -32.80713 26.39395 9124 ft 162 kts 20°
2026-04-14 01:02 -32.79647 26.39837 9121 ft 162 kts 20°
2026-04-14 01:02 -32.78582 26.40279 9119 ft 162 kts 20°
2026-04-14 01:03 -32.77514 26.40721 9117 ft 162 kts 20°
2026-04-14 01:03 -32.76449 26.41162 9117 ft 162 kts 20°
2026-04-14 01:03 -32.75398 26.41599 9121 ft 162 kts 20°
2026-04-14 01:03 -32.74333 26.42041 9122 ft 162 kts 20°
2026-04-14 01:04 -32.73255 26.42488 9121 ft 162 kts 20°
2026-04-14 01:04 -32.72191 26.42928 9119 ft 162 kts 20°
2026-04-14 01:04 -32.71127 26.43364 9123 ft 161 kts 19°
2026-04-14 01:04 -32.70066 26.43801 9127 ft 161 kts 20°
2026-04-14 01:05 -32.69006 26.44243 9123 ft 161 kts 20°
2026-04-14 01:05 -32.67948 26.44682 9123 ft 161 kts 20°
2026-04-14 01:05 -32.66889 26.45122 9131 ft 161 kts 20°
2026-04-14 01:05 -32.65842 26.45558 9121 ft 161 kts 20°
2026-04-14 01:06 -32.64780 26.45996 9127 ft 162 kts 19°
2026-04-14 01:06 -32.63717 26.46434 9127 ft 162 kts 19°
2026-04-14 01:06 -32.62652 26.46873 9125 ft 162 kts 19°
2026-04-14 01:06 -32.61585 26.47312 9125 ft 162 kts 19°
2026-04-14 01:07 -32.60518 26.47751 9131 ft 162 kts 20°
2026-04-14 01:07 -32.59453 26.48192 9129 ft 162 kts 20°
2026-04-14 01:07 -32.58386 26.48635 9131 ft 162 kts 19°
2026-04-14 01:07 -32.57315 26.49062 9130 ft 162 kts 19°
2026-04-14 01:08 -32.56243 26.49479 9128 ft 162 kts 19°
2026-04-14 01:08 -32.55171 26.49902 9134 ft 162 kts 19°
2026-04-14 01:08 -32.54102 26.50330 9130 ft 162 kts 19°
2026-04-14 01:08 -32.53037 26.50762 9136 ft 162 kts 19°
2026-04-14 01:09 -32.51970 26.51197 9138 ft 163 kts 19°
2026-04-14 01:09 -32.51260 26.51490 9131 ft 163 kts 19°
2026-04-14 01:09 -32.50192 26.51932 9132 ft 162 kts 19°
2026-04-14 01:09 -32.49128 26.52374 9137 ft 162 kts 19°
2026-04-14 01:10 -32.48066 26.52816 9138 ft 162 kts 19°
2026-04-14 01:10 -32.47004 26.53257 9137 ft 162 kts 19°
2026-04-14 01:10 -32.45942 26.53697 9132 ft 161 kts 20°
2026-04-14 01:10 -32.44891 26.54134 9136 ft 160 kts 19°
2026-04-14 01:11 -32.43843 26.54568 9135 ft 159 kts 19°
2026-04-14 01:11 -32.42792 26.55003 9150 ft 161 kts 19°
2026-04-14 01:11 -32.41736 26.55438 9147 ft 161 kts 19°
2026-04-14 01:11 -32.40678 26.55874 9140 ft 161 kts 19°
2026-04-14 01:12 -32.39623 26.56311 9140 ft 161 kts 19°
2026-04-14 01:12 -32.38566 26.56750 9143 ft 161 kts 19°
2026-04-14 01:12 -32.37514 26.57187 9142 ft 160 kts 19°
2026-04-14 01:12 -32.36467 26.57621 9144 ft 159 kts 19°
2026-04-14 01:13 -32.35422 26.58052 9147 ft 159 kts 19°
2026-04-14 01:13 -32.34371 26.58486 9149 ft 160 kts 19°
2026-04-14 01:13 -32.33318 26.58921 9149 ft 160 kts 19°
2026-04-14 01:13 -32.32265 26.59355 9145 ft 161 kts 19°
2026-04-14 01:14 -32.31209 26.59792 9138 ft 160 kts 19°
2026-04-14 01:14 -32.30154 26.60226 9145 ft 160 kts 19°
2026-04-14 01:14 -32.29102 26.60662 9145 ft 160 kts 19°
2026-04-14 01:14 -32.28047 26.61099 9154 ft 161 kts 19°
2026-04-14 01:15 -32.26981 26.61539 9150 ft 163 kts 19°
2026-04-14 01:15 -32.25913 26.61980 9151 ft 163 kts 19°
2026-04-14 01:15 -32.24844 26.62420 9146 ft 163 kts 19°
2026-04-14 01:15 -32.23776 26.62860 9147 ft 162 kts 19°
2026-04-14 01:16 -32.22709 26.63299 9151 ft 163 kts 19°
2026-04-14 01:16 -32.21641 26.63739 9151 ft 163 kts 19°
2026-04-14 01:16 -32.20572 26.64181 9150 ft 163 kts 19°
2026-04-14 01:16 -32.19505 26.64621 9148 ft 162 kts 19°
2026-04-14 01:18 -32.12056 26.67670 9156 ft 162 kts 19°
2026-04-14 01:18 -32.10991 26.68104 9154 ft 162 kts 18°
2026-04-14 01:19 -32.09923 26.68539 9152 ft 162 kts 18°
2026-04-14 01:19 -32.08859 26.68973 9154 ft 162 kts 19°
2026-04-14 01:19 -32.07792 26.69409 9153 ft 162 kts 19°
2026-04-14 01:19 -32.06727 26.69844 9155 ft 162 kts 19°
2026-04-14 01:20 -32.05662 26.70278 9154 ft 162 kts 19°
2026-04-14 01:20 -32.04597 26.70713 9152 ft 162 kts 18°
2026-04-14 01:20 -32.03533 26.71147 9154 ft 162 kts 18°
2026-04-14 01:20 -32.02467 26.71581 9155 ft 162 kts 18°
2026-04-14 01:21 -32.01402 26.72017 9154 ft 162 kts 18°
2026-04-14 01:21 -32.00335 26.72453 9151 ft 162 kts 18°
2026-04-14 01:21 -31.99270 26.72888 9150 ft 162 kts 18°
2026-04-14 01:21 -31.98206 26.73323 9151 ft 162 kts 18°
2026-04-14 01:22 -31.97142 26.73758 9150 ft 162 kts 18°
2026-04-14 01:22 -31.96077 26.74191 9163 ft 162 kts 18°
2026-04-14 01:22 -31.95006 26.74627 9160 ft 163 kts 18°
2026-04-14 01:22 -31.93931 26.75066 9152 ft 163 kts 18°
2026-04-14 01:23 -31.92860 26.75502 9151 ft 163 kts 18°
2026-04-14 01:23 -31.91790 26.75936 9152 ft 162 kts 18°
2026-04-14 01:23 -31.90721 26.76370 9154 ft 162 kts 18°
2026-04-14 01:23 -31.89667 26.76800 9154 ft 162 kts 18°
2026-04-14 01:24 -31.88600 26.77234 9153 ft 162 kts 18°
2026-04-14 01:24 -31.87534 26.77668 9154 ft 162 kts 18°
2026-04-14 01:24 -31.86467 26.78101 9154 ft 162 kts 18°
2026-04-14 01:24 -31.85401 26.78534 9153 ft 162 kts 18°
2026-04-14 01:25 -31.84335 26.78967 9154 ft 162 kts 18°
2026-04-14 01:25 -31.83268 26.79400 9154 ft 162 kts 18°
2026-04-14 01:25 -31.82203 26.79832 9156 ft 162 kts 18°
2026-04-14 01:25 -31.81136 26.80265 9153 ft 162 kts 18°
2026-04-14 01:26 -31.80071 26.80697 9154 ft 162 kts 18°
2026-04-14 01:26 -31.79007 26.81130 9154 ft 162 kts 18°
2026-04-14 01:26 -31.77943 26.81562 9147 ft 161 kts 18°
2026-04-14 01:26 -31.76882 26.81992 9151 ft 161 kts 18°
2026-04-14 01:27 -31.75818 26.82422 9155 ft 162 kts 18°
2026-04-14 01:27 -31.74752 26.82853 9152 ft 162 kts 18°
2026-04-14 01:27 -31.73685 26.83285 9155 ft 162 kts 18°
2026-04-14 01:27 -31.72619 26.83716 9156 ft 162 kts 18°
2026-04-14 01:28 -31.71553 26.84146 9156 ft 162 kts 18°
2026-04-14 01:28 -31.70489 26.84576 9159 ft 162 kts 18°
2026-04-14 01:28 -31.69423 26.85006 9154 ft 162 kts 18°
2026-04-14 01:28 -31.68357 26.85436 9157 ft 162 kts 18°
2026-04-14 01:29 -31.67287 26.85868 9160 ft 163 kts 18°
2026-04-14 01:29 -31.66216 26.86301 9157 ft 162 kts 18°
2026-04-14 01:29 -31.65147 26.86732 9157 ft 162 kts 18°
2026-04-14 01:29 -31.64079 26.87163 9153 ft 163 kts 18°
2026-04-14 01:30 -31.63007 26.87595 9158 ft 163 kts 17°
2026-04-14 01:30 -31.61935 26.88028 9157 ft 163 kts 18°
2026-04-14 01:30 -31.60865 26.88459 9154 ft 162 kts 18°
2026-04-14 01:30 -31.59798 26.88891 9154 ft 162 kts 18°
2026-04-14 01:31 -31.58747 26.89314 9153 ft 161 kts 18°
2026-04-14 01:31 -31.57685 26.89742 9160 ft 161 kts 17°
2026-04-14 01:31 -31.56621 26.90172 9164 ft 162 kts 18°
2026-04-14 01:31 -31.55551 26.90602 9161 ft 163 kts 18°
2026-04-14 01:32 -31.54483 26.91032 9156 ft 162 kts 18°
2026-04-14 01:32 -31.53418 26.91460 9157 ft 161 kts 18°
2026-04-14 01:32 -31.52355 26.91889 9168 ft 162 kts 18°
2026-04-14 01:32 -31.51288 26.92320 9169 ft 163 kts 18°
2026-04-14 01:33 -31.50215 26.92752 9167 ft 163 kts 18°
2026-04-14 01:33 -31.49143 26.93180 9164 ft 163 kts 17°
2026-04-14 01:33 -31.48059 26.93548 9162 ft 162 kts 13°
2026-04-14 01:33 -31.46947 26.93763 9161 ft 162 kts
2026-04-14 01:34 -31.45826 26.93885 9165 ft 162 kts
2026-04-14 01:34 -31.44704 26.93991 9163 ft 162 kts
2026-04-14 01:34 -31.43582 26.94103 9157 ft 162 kts
2026-04-14 01:34 -31.42459 26.94224 9165 ft 162 kts
2026-04-14 01:35 -31.41339 26.94355 9170 ft 162 kts
2026-04-14 01:35 -31.40216 26.94492 9169 ft 162 kts
2026-04-14 01:35 -31.39093 26.94633 9173 ft 163 kts
2026-04-14 01:35 -31.37968 26.94777 9172 ft 163 kts
2026-04-14 01:36 -31.36846 26.94922 9169 ft 162 kts
2026-04-14 01:36 -31.35719 26.95067 9167 ft 162 kts
2026-04-14 01:36 -31.34597 26.95212 9169 ft 162 kts
2026-04-14 01:36 -31.33474 26.95357 9174 ft 162 kts
2026-04-14 01:37 -31.32350 26.95503 9172 ft 162 kts
2026-04-14 01:37 -31.31225 26.95648 9167 ft 162 kts
2026-04-14 01:37 -31.30120 26.95790 9171 ft 162 kts
2026-04-14 01:37 -31.28998 26.95936 9171 ft 162 kts
2026-04-14 01:38 -31.26750 26.96225 9172 ft 163 kts
2026-04-14 01:38 -31.25624 26.96370 9161 ft 162 kts
2026-04-14 01:38 -31.24507 26.96514 9163 ft 161 kts
2026-04-14 01:39 -31.23390 26.96658 9178 ft 162 kts
2026-04-14 01:39 -31.22267 26.96803 9172 ft 162 kts
2026-04-14 01:39 -31.21144 26.96947 9175 ft 162 kts
2026-04-14 01:39 -31.20022 26.97091 9170 ft 162 kts
2026-04-14 01:40 -31.18899 26.97236 9171 ft 163 kts
2026-04-14 01:40 -31.17773 26.97381 9171 ft 162 kts
2026-04-14 01:40 -31.16652 26.97526 9169 ft 162 kts
2026-04-14 01:40 -31.15531 26.97671 9163 ft 162 kts
2026-04-14 01:41 -31.14414 26.97815 9173 ft 162 kts
2026-04-14 01:41 -31.13294 26.97958 9173 ft 162 kts
2026-04-14 01:41 -31.12174 26.98103 9169 ft 161 kts
2026-04-14 01:41 -31.11057 26.98247 9175 ft 161 kts
2026-04-14 01:42 -31.09935 26.98390 9183 ft 162 kts
2026-04-14 01:42 -31.08825 26.98529 9181 ft 163 kts
2026-04-14 01:42 -31.07696 26.98674 9178 ft 163 kts
2026-04-14 01:42 -31.06566 26.98820 9176 ft 163 kts
2026-04-14 01:43 -31.05439 26.98965 9171 ft 163 kts
2026-04-14 01:43 -31.04314 26.99111 9176 ft 162 kts
2026-04-14 01:43 -31.03189 26.99255 9173 ft 162 kts
2026-04-14 01:43 -31.02068 26.99397 9174 ft 162 kts
2026-04-14 01:44 -31.00950 26.99542 9171 ft 162 kts
2026-04-14 01:44 -30.99832 26.99685 9175 ft 161 kts
2026-04-14 01:44 -30.98730 26.99827 9179 ft 162 kts
2026-04-14 01:44 -30.97608 26.99971 9176 ft 162 kts
2026-04-14 01:45 -30.96486 27.00115 9182 ft 162 kts
2026-04-14 01:45 -30.95363 27.00259 9174 ft 162 kts
2026-04-14 01:45 -30.94239 27.00401 9180 ft 162 kts
2026-04-14 01:45 -30.93119 27.00545 9179 ft 162 kts
2026-04-14 01:46 -30.91998 27.00689 9181 ft 162 kts
2026-04-14 01:46 -30.90891 27.00831 9184 ft 162 kts
2026-04-14 01:46 -30.89768 27.00975 9178 ft 162 kts
2026-04-14 01:46 -30.88649 27.01119 9182 ft 162 kts
2026-04-14 01:47 -30.87530 27.01263 9177 ft 162 kts
2026-04-14 01:47 -30.86472 27.01692 9180 ft 163 kts 26°
2026-04-14 01:47 -30.85485 27.02338 9176 ft 163 kts 28°
2026-04-14 01:47 -30.84516 27.03027 9180 ft 163 kts 30°
2026-04-14 01:48 -30.83519 27.03653 9181 ft 162 kts 21°
2026-04-14 01:48 -30.82464 27.04112 9182 ft 162 kts 17°
2026-04-14 01:48 -30.81393 27.04539 9187 ft 162 kts 17°
2026-04-14 01:48 -30.80329 27.04983 9178 ft 163 kts 19°
2026-04-14 01:49 -30.79306 27.05511 9184 ft 163 kts 24°
2026-04-14 01:49 -30.78284 27.06091 9183 ft 163 kts 24°
2026-04-14 01:49 -30.77262 27.06663 9178 ft 163 kts 24°
2026-04-14 01:49 -30.76242 27.07241 9179 ft 163 kts 24°
2026-04-14 01:50 -30.75226 27.07823 9181 ft 163 kts 24°
2026-04-14 01:50 -30.74212 27.08410 9184 ft 163 kts 25°
2026-04-14 01:50 -30.73196 27.09000 9184 ft 163 kts 25°
2026-04-14 01:50 -30.72194 27.09584 9178 ft 163 kts 25°
2026-04-14 01:51 -30.71182 27.10175 9183 ft 163 kts 25°
2026-04-14 01:51 -30.70172 27.10768 9182 ft 163 kts 25°
2026-04-14 01:51 -30.69159 27.11361 9179 ft 163 kts 25°
2026-04-14 01:51 -30.68145 27.11954 9183 ft 163 kts 25°
2026-04-14 01:52 -30.67130 27.12547 9181 ft 163 kts 25°
2026-04-14 01:52 -30.66115 27.13140 9185 ft 163 kts 25°
2026-04-14 01:52 -30.65102 27.13732 9185 ft 163 kts 25°
2026-04-14 01:52 -30.64082 27.14327 9185 ft 163 kts 25°
2026-04-14 01:53 -30.63066 27.14921 9183 ft 164 kts 25°
2026-04-14 01:53 -30.62047 27.15515 9184 ft 164 kts 25°
2026-04-14 01:53 -30.61029 27.16112 9180 ft 163 kts 25°
2026-04-14 01:53 -30.60017 27.16704 9184 ft 163 kts 25°
2026-04-14 01:54 -30.58998 27.17298 9183 ft 164 kts 25°
2026-04-14 01:54 -30.57994 27.17882 9177 ft 163 kts 25°
2026-04-14 01:54 -30.56981 27.18473 9169 ft 163 kts 25°
2026-04-14 01:54 -30.55971 27.19062 9180 ft 162 kts 25°
2026-04-14 01:55 -30.54961 27.19651 9179 ft 162 kts 25°
2026-04-14 01:55 -30.53951 27.20241 9185 ft 163 kts 25°
2026-04-14 01:55 -30.52936 27.20831 9181 ft 163 kts 25°
2026-04-14 01:55 -30.51937 27.21413 9183 ft 162 kts 25°
2026-04-14 01:56 -30.50921 27.22006 9190 ft 163 kts 25°
2026-04-14 01:56 -30.49906 27.22597 9187 ft 163 kts 25°
2026-04-14 01:56 -30.48895 27.23187 9181 ft 162 kts 25°
2026-04-14 01:56 -30.47882 27.23775 9180 ft 162 kts 25°
2026-04-14 01:57 -30.46874 27.24361 9187 ft 162 kts 25°
2026-04-14 01:57 -30.45866 27.24949 9189 ft 163 kts 25°
2026-04-14 01:57 -30.44863 27.25533 9194 ft 163 kts 24°
2026-04-14 01:57 -30.43845 27.26124 9194 ft 164 kts 25°
2026-04-14 01:58 -30.42827 27.26718 9187 ft 164 kts 25°
2026-04-14 01:58 -30.41807 27.27310 9187 ft 164 kts 25°
2026-04-14 01:58 -30.40793 27.27901 9191 ft 163 kts 25°
2026-04-14 01:58 -30.39784 27.28488 9173 ft 161 kts 25°
2026-04-14 01:59 -30.38781 27.29075 9188 ft 162 kts 25°
2026-04-14 01:59 -30.38116 27.29461 9188 ft 162 kts 25°
2026-04-14 01:59 -30.37103 27.30046 9185 ft 163 kts 25°
2026-04-14 01:59 -30.35749 27.30831 9185 ft 163 kts 25°
2026-04-14 02:00 -30.35078 27.31220 9184 ft 163 kts 25°
2026-04-14 02:00 -30.34070 27.31806 9186 ft 162 kts 25°
2026-04-14 02:00 -30.33061 27.32391 9190 ft 162 kts 25°
2026-04-14 02:00 -30.32053 27.32975 9189 ft 162 kts 25°
2026-04-14 02:01 -30.31047 27.33559 9186 ft 162 kts 25°
2026-04-14 02:01 -30.30042 27.34142 9187 ft 162 kts 25°
2026-04-14 02:01 -30.29036 27.34724 9194 ft 162 kts 25°
2026-04-14 02:01 -30.28029 27.35308 9195 ft 162 kts 25°
2026-04-14 02:02 -30.27054 27.35962 9185 ft 164 kts 40°
2026-04-14 02:02 -30.26333 27.36985 9187 ft 164 kts 50°
2026-04-14 02:02 -30.25648 27.38039 9190 ft 164 kts 50°
2026-04-14 02:02 -30.24961 27.39096 9182 ft 164 kts 50°
2026-04-14 02:03 -30.24277 27.40154 9187 ft 164 kts 51°
2026-04-14 02:03 -30.23595 27.41216 9192 ft 165 kts 51°
2026-04-14 02:03 -30.22924 27.42268 9189 ft 165 kts 51°
2026-04-14 02:03 -30.22246 27.43333 9187 ft 164 kts 51°
2026-04-14 02:04 -30.21569 27.44397 9183 ft 164 kts 51°
2026-04-14 02:04 -30.20895 27.45465 9186 ft 164 kts 52°
2026-04-14 02:04 -30.20240 27.46544 9187 ft 164 kts 52°
2026-04-14 02:04 -30.19595 27.47631 9183 ft 163 kts 53°
2026-04-14 02:05 -30.18960 27.48713 9175 ft 162 kts 52°
2026-04-14 02:05 -30.18331 27.49792 9198 ft 162 kts 53°
2026-04-14 02:05 -30.17700 27.50872 9183 ft 162 kts 53°
2026-04-14 02:05 -30.17078 27.51945 9189 ft 160 kts 53°
2026-04-14 02:06 -30.16456 27.53019 9207 ft 162 kts 52°
2026-04-14 02:06 -30.15823 27.54110 9194 ft 164 kts 53°
2026-04-14 02:06 -30.15188 27.55197 9192 ft 164 kts 53°
2026-04-14 02:06 -30.14545 27.56300 9187 ft 165 kts 53°
2026-04-14 02:07 -30.13904 27.57397 9191 ft 165 kts 53°
2026-04-14 02:07 -30.13264 27.58499 9189 ft 165 kts 53°
2026-04-14 02:07 -30.12625 27.59596 9172 ft 164 kts 52°
2026-04-14 02:07 -30.11990 27.60685 9178 ft 163 kts 53°
2026-04-14 02:08 -30.11365 27.61763 9182 ft 161 kts 53°
2026-04-14 02:08 -30.10735 27.62842 9194 ft 162 kts 53°
2026-04-14 02:08 -30.10100 27.63919 9197 ft 163 kts 52°
2026-04-14 02:08 -30.09464 27.65007 9213 ft 165 kts 53°
2026-04-14 02:09 -30.08821 27.66110 9216 ft 167 kts 53°
2026-04-14 02:09 -30.08163 27.67223 9193 ft 168 kts 52°
2026-04-14 02:09 -30.07597 27.68395 9183 ft 168 kts 65°
2026-04-14 02:09 -30.07187 27.69656 9182 ft 168 kts 67°
2026-04-14 02:10 -30.06809 27.70927 9177 ft 167 kts 68°
2026-04-14 02:10 -30.06449 27.72185 9168 ft 163 kts 69°
2026-04-14 02:10 -30.06108 27.73422 9191 ft 161 kts 69°
2026-04-14 02:10 -30.05772 27.74669 9205 ft 163 kts 69°
2026-04-14 02:11 -30.05416 27.75911 9199 ft 163 kts 66°
2026-04-14 02:11 -30.05035 27.77127 9193 ft 162 kts 68°
2026-04-14 02:11 -30.04732 27.78395 9200 ft 164 kts 76°
2026-04-14 02:11 -30.04536 27.79701 9212 ft 166 kts 78°
2026-04-14 02:12 -30.04322 27.81013 9205 ft 166 kts 74°
2026-04-14 02:12 -30.04047 27.82311 9211 ft 167 kts 72°
2026-04-14 02:12 -30.03502 27.83454 9204 ft 163 kts 46°
2026-04-14 02:12 -30.02743 27.84424 9201 ft 162 kts 44°
2026-04-14 02:13 -30.01942 27.85315 9227 ft 158 kts 38°
2026-04-14 02:13 -30.01118 27.86170 9093 ft 163 kts 38°
2026-04-14 02:13 -30.00258 27.87026 9038 ft 163 kts 39°
2026-04-14 02:13 -29.99513 27.87997 8932 ft 163 kts 49°
2026-04-14 02:14 -29.98788 27.89016 8685 ft 164 kts 45°
2026-04-14 02:14 -29.97902 27.89660 8810 ft 149 kts 10°
2026-04-14 02:14 -29.96943 27.89411 8831 ft 146 kts 329°
2026-04-14 02:14 -29.96111 27.88697 8784 ft 152 kts 322°
2026-04-14 02:15 -29.95287 27.87898 8636 ft 156 kts 325°
2026-04-14 02:15 -29.94593 27.87079 8509 ft 127 kts 302°
2026-04-14 02:15 -29.94526 27.86235 8248 ft 101 kts 253°
2026-04-14 02:15 -29.94541 27.85508 8048 ft 88 kts 305°
2026-04-14 02:16 -29.94022 27.85227 8056 ft 95 kts 359°
2026-04-14 02:16 -29.93336 27.85108 7954 ft 97 kts 342°
2026-04-14 02:16 -29.92724 27.84781 7922 ft 96 kts 334°
2026-04-14 02:16 -29.92098 27.84665 7768 ft 93 kts 17°
2026-04-14 02:17 -29.91643 27.85197 7558 ft 101 kts 81°
2026-04-14 02:17 -29.92013 27.85773 7589 ft 101 kts 186°
2026-04-14 02:17 -29.92574 27.85397 7616 ft 90 kts 227°
2026-04-14 02:17 -29.92910 27.84830 7538 ft 78 kts 237°
2026-04-14 02:18 -29.93057 27.84556 7536 ft 6 kts 270°
2026-04-14 02:18 -29.93057 27.84574 7536 ft 10 kts 118°
2026-04-14 02:18 -29.93075 27.84639 7538 ft 12 kts 49°
2026-04-14 02:18 -29.93047 27.84668 7538 ft 0 kts 13°